www.pogodaiklimat.ru

Погода и климат >> Архив погоды >> Норвегия >> Квамскоген


ПОГОДА в Квамскогене

  • Прогноз погоды в Квамскогене
  • Монитор погоды в Квамскогене

АРХИВ ПОГОДЫ в Квамскогене

Время (UTC), дата Ветер
(напр.,м/с)
 
Видим.   Явления Облачность Т
(С)
Тd
(С)
f
(%)
Тe
(С)
Тes
(С)
Комфортность P
(гПа)
Po
(гПа)
Тmin
(С)
Tmax
(С)
R
(мм)
R24
(мм)
S
(см)
19 16.09 З 4
{8}
н/о н/о +5.2 +4.0 92 +1 +1 1007.7 953.2 0.4
20 16.09 СЗ 4
{10}
н/о н/о +3.7 +2.8 94 -1 -1 1008.0 953.2 3
21 16.09 З 5
{13}
н/о н/о +3.4 +2.2 92 -2 -2 1007.8 953.0 2
22 16.09 З 6
{16}
н/о н/о +3.4 +1.8 89 -2 -2 1007.8 952.9 1
23 16.09 СЗ 2
{7}
н/о н/о +2.4 +1.4 93 -1 -1 1008.0 952.9 2
00 17.09 Ю 1
{16}
н/о н/о +1.5 +1.2 98 -1 -1 1007.5 952.3 2
01 17.09 В 1
{3}
н/о н/о +1.9 +1.6 98 -0 -0 1006.6 951.5 0.4
02 17.09 З 2
{4}
н/о н/о +0.9 +0.5 97 -3 -3 1006.7 951.4 3
03 17.09 З 2
{3}
н/о н/о +1.3 +1.0 98 -2 -2 1006.1 950.9 0.3
04 17.09 З 2
{3}
н/о н/о +1.4 +1.1 98 -2 -2 1006.1 951.0 0.8
05 17.09 СЗ 3
{5}
н/о н/о +1.4 +1.1 98 -3 -3 1006.9 951.7 1
06 17.09 СЗ 3
{8}
н/о н/о +1.8 +0.9 94 -3 -3 1006.9 951.8 +0.8 +5.2 16
07 17.09 З 5
{7}
н/о н/о +2.3 +1.4 94 -3 -3 1007.7 952.6
08 17.09 З 3
{7}
н/о н/о +2.8 +1.5 91 -1 -1 1009.0 954.0
09 17.09 З 2
{5}
н/о н/о +4.1 +0.3 76 +1 +1 1009.6 954.8
10 17.09 З 3
{7}
н/о н/о +4.7 +1.0 77 +1 +1 1010.6 955.8
11 17.09 СЗ 6
{10}
н/о н/о +5.7 +0.5 69 +1 +1 1011.4 956.8
12 17.09 З 5
{10}
н/о н/о +6.1 +0.5 67 +2 +2 1012.4 957.8
13 17.09 З 8
{10}
н/о н/о +5.5 +2.3 80 -0 -0 1013.2 958.5
14 17.09 З 7
{10}
н/о н/о +5.6 +3.5 86 0 0 1014.2 959.4
15 17.09 З 8
{11}
н/о н/о +5.5 +4.3 92 -0 -0 1014.8 960.0 0.1
16 17.09 З 9
{12}
н/о н/о +5.7 +4.4 91 -0 -0 1015.2 960.4 0.2
17 17.09 З 7
{14}
н/о н/о +5.8 +3.8 87 +1 +1 1015.8 961.0 0.1
18 17.09 З 6
{14}
н/о н/о +5.7 +3.4 85 +1 +1 1016.8 961.9 +1.8 +6.7 0.6
19 17.09 З 6
{10}
н/о н/о +5.3 +3.6 89 0 0 1017.4 962.4 0.1
20 17.09 З 6
{9}
н/о н/о +5.1 +3.3 88 -0 -0 1018.3 963.2
21 17.09 СЗ 5
{11}
н/о н/о +5.2 +3.7 90 +1 +1 1018.6 963.5
22 17.09 СЗ 4
{11}
н/о н/о +5.0 +2.9 86 +1 +1 1019.0 963.8
23 17.09 СЗ 4
{8}
н/о н/о +4.9 +2.9 87 +1 +1 1019.2 964.0
00 18.09 З 4
{11}
н/о н/о +4.4 +3.5 94 -0 -0 1019.4 964.1 0.1
01 18.09 З 4
{8}
н/о н/о +4.0 +3.6 97 -1 -1 1019.7 964.3 0.1
02 18.09 З 4
{6}
н/о н/о +4.0 +3.6 97 -1 -1 1019.8 964.4 0.9
03 18.09 З 3
{5}
н/о н/о +3.6 +3.2 97 -1 -1 1019.9 964.4 0.5
04 18.09 СЗ 2
{4}
н/о н/о +3.0 +2.6 97 -0 -0 1020.4 964.8
05 18.09 З 3
{4}
н/о н/о +3.6 +3.0 96 -1 -1 1020.7 965.2
06 18.09 СЗ 2
{8}
н/о н/о +3.7 +3.1 96 +1 +1 1021.1 965.6 +2.9 +5.8 2
07 18.09 З 3
{5}
н/о н/о +4.6 +3.6 93 +1 +1 1021.6 966.2
08 18.09 З 4
{6}
н/о н/о +6.0 +3.5 84 +2 +2 1021.7 966.6
09 18.09 З 4
{7}
н/о н/о +6.1 +3.4 83 +2 +2 1022.2 967.1
10 18.09 З 5
{7}
н/о н/о +7.4 +3.5 76 +4 +4 1022.3 967.4
11 18.09 З 6
{10}
н/о н/о +7.9 +2.0 66 +4 +4 1022.6 967.8
12 18.09 З 6
{10}
н/о н/о +8.2 +3.1 70 +4 +4 1022.6 967.9
13 18.09 З 7
{10}
н/о н/о +7.4 +3.1 74 +3 +3 1023.1 968.2
14 18.09 З 7
{11}
н/о н/о +7.7 +2.8 71 +3 +3 1023.4 968.5 0.1
15 18.09 СЗ 4
{10}
н/о н/о +7.9 +2.2 67 +5 +5 1023.9 969.0 0.1
16 18.09 З 4
{8}
н/о н/о +7.6 +2.9 72 +4 +4 1024.1 969.2
17 18.09 ЮЗ 2
{8}
н/о н/о +5.8 +2.1 77 +3 +3 1024.8 969.5 0.1
18 18.09 СЗ 1
{11}
н/о н/о +4.8 +3.1 89 +3 +3 1025.8 970.2 +3.4 +8.6 0.3
19 18.09 СЗ 3
{5}
н/о н/о +4.4 +2.6 88 +1 +1 1026.1 970.4
20 18.09 СЗ 2
{5}
н/о н/о +3.2 +2.2 93 0 0 1026.7 970.8
21 18.09 СЗ 2
{5}
н/о н/о +3.5 +0.7 82 +1 +1 1026.7 970.9
22 18.09 ЮЗ 2
{5}
н/о н/о +3.6 +0.8 82 +1 +1 1027.1 971.2
23 18.09 З 2
{5}
н/о н/о +2.6 +1.0 89 -1 -1 1027.5 971.4
00 19.09 СЗ 2
{5}
н/о н/о +2.3 +0.7 89 -1 -1 1027.8 971.6
01 19.09 СЗ 2
{3}
н/о н/о +1.4 +0.5 94 -2 -2 1028.3 971.9
02 19.09 СЗ 1
{3}
н/о н/о +1.5 +0.5 93 -0 -0 1028.1 971.8
03 19.09 штиль 0
{2}
н/о н/о +0.1 -0.3 97 -1 -1 1028.6 972.0
04 19.09 З 1
{1}
н/о н/о -0.2 -0.4 99 -2 -2 1028.4 971.7
05 19.09 СЗ 1
{1}
н/о н/о -0.1 -0.2 99 -2 -2 1028.6 971.9
06 19.09 З 1
{3}
н/о н/о +0.2 +0.1 99 -2 -2 1028.7 972.1 -0.3 +5.4
07 19.09 штиль 0
{1}
н/о н/о +2.0 +1.9 99 +1 +1 1028.6 972.3
08 19.09 штиль 0
{1}
н/о н/о +4.1 +2.5 89 +3 +3 1028.6 972.7
09 19.09 В 1
{1}
н/о н/о +5.8 +2.1 77 +5 +5 1028.1 972.6
10 19.09 В 1
{2}
н/о н/о +6.5 +2.8 77 +6 +6 1028.2 972.9
11 19.09 В 1
{2}
н/о н/о +6.6 +1.9 72 +6 +6 1028.3 972.9
12 19.09 ЮВ 2
{4}
н/о н/о +5.9 +3.4 84 +3 +3 1028.0 972.5 0.2
13 19.09 СЗ 2
{3}
н/о н/о +5.6 +3.5 86 +3 +3 1027.8 972.3 0.6
14 19.09 СЗ 1
{3}
н/о н/о +5.5 +3.7 88 +4 +4 1027.4 971.9 0.2
15 19.09 В 1
{2}
н/о н/о +5.2 +4.0 92 +4 +4 1027.1 971.5 0.2
16 19.09 В 1
{2}
н/о н/о +4.8 +4.1 95 +3 +3 1027.1 971.5 0.6
17 19.09 В 2
{4}
н/о н/о +4.3 +4.0 98 +1 +1 1026.8 971.1 0.4
18 19.09 В 3
{4}
н/о н/о +4.1 +3.7 97 0 0 1026.5 970.8 +0.2 +6.7 2
19 19.09 В 3
{5}
н/о н/о +4.5 +3.9 96 +1 +1 1025.9 970.3
20 19.09 В 2
{5}
н/о н/о +4.6 +4.3 98 +2 +2 1025.7 970.1 0.3
21 19.09 В 3
{4}
н/о н/о +4.8 +4.5 98 +1 +1 1025.7 970.1 0.4
22 19.09 ЮВ 1
{5}
н/о н/о +4.9 +4.6 98 +3 +3 1025.4 969.9 0.5
23 19.09 штиль 0
{2}
н/о н/о +4.9 +4.8 99 +4 +4 1025.2 969.7 0.4
00 20.09 СЗ 1
{5}
н/о н/о +5.0 +4.9 99 +3 +3 1025.0 969.5 0.2
01 20.09 штиль 0
{1}
н/о н/о +5.2 +5.2 100 +4 +4 1024.8 969.4 0.2
02 20.09 СЗ 1
{2}
н/о н/о +5.2 +5.2 100 +4 +4 1024.6 969.2 0.8
03 20.09 штиль 0
{2}
н/о н/о +5.5 +5.5 100 +4 +4 1024.8 969.4 0.6
04 20.09 СЗ 1
{2}
н/о н/о +5.6 +5.6 100 +4 +4 1024.5 969.2 0.3
05 20.09 СЗ 1
{2}
н/о н/о +5.8 +5.8 100 +4 +4 1024.5 969.2 0.5
06 20.09 З 1
{2}
н/о н/о +6.1 +6.1 100 +5 +5 1024.4 969.2 +4.1 +6.1 5
07 20.09 СЗ 1
{1}
н/о н/о +6.4 +6.4 100 +5 +5 1024.7 969.5 0.4
08 20.09 Ю 1
{1}
н/о н/о +7.3 +7.3 100 +6 +6 1024.6 969.6 0.1
09 20.09 ЮВ 1
{2}
н/о н/о +8.5 +8.5 100 +8 +8 1024.6 969.8 0.1
10 20.09 З 4
{5}
н/о н/о +8.8 +8.7 99 +6 +6 1024.5 969.8 0.1
11 20.09 З 4
{6}
н/о н/о +8.9 +8.5 97 +6 +6 1024.4 969.7 0.2
12 20.09 З 3
{6}
н/о н/о +9.7 +8.5 92 +7 +7 1024.1 969.6
13 20.09 З 3
{7}
н/о н/о +9.5 +8.6 94 +7 +7 1024.4 969.8
14 20.09 З 4
{6}
н/о н/о +9.9 +8.5 91 +7 +7 1024.2 969.7
15 20.09 З 5
{7}
н/о н/о +9.0 +8.4 96 +5 +5 1024.4 969.7
16 20.09 З 3
{5}
н/о н/о +8.8 +8.4 97 +6 +6 1024.5 969.8
17 20.09 З 2
{5}
н/о н/о +8.7 +8.1 96 +7 +7 1024.6 969.8
18 20.09 СЗ 1
{7}
н/о н/о +8.6 +8.2 97 +8 +8 1024.7 969.9 +6.1 +10.1 0.9
19 20.09 штиль 0
{2}
н/о н/о +8.4 +8.1 98 +7 +7 1024.7 969.9
20 20.09 СЗ 1
{1}
н/о н/о +8.2 +7.9 98 +7 +7 1024.8 969.9
21 20.09 СЗ 1
{2}
н/о н/о +7.7 +7.6 99 +7 +7 1025.0 970.0
22 20.09 СЗ 1
{1}
н/о н/о +6.1 +5.8 98 +5 +5 1025.1 969.8
23 20.09 штиль 0
{1}
н/о н/о +5.2 +5.1 99 +4 +4 1025.0 969.6
00 21.09 СВ 1
{2}
н/о н/о +5.6 +5.6 100 +4 +4 1024.6 969.3
01 21.09 штиль 0
{1}
н/о н/о +5.9 +5.9 100 +5 +5 1024.3 969.0
02 21.09 С 1
{2}
н/о н/о +5.8 +5.8 100 +4 +4 1024.0 968.7
03 21.09 В 1
{1}
н/о н/о +4.7 +4.7 100 +3 +3 1023.7 968.2
04 21.09 ЮЗ 1
{1}
н/о н/о +4.6 +4.6 100 +3 +3 1023.2 967.7
05 21.09 З 1
{1}
н/о н/о +4.4 +4.4 100 +3 +3 1023.3 967.8
06 21.09 ЮВ 1
{2}
н/о н/о +4.6 +4.6 100 +3 +3 1023.5 968.0 +3.8 +8.6
07 21.09 В 1
{3}
н/о н/о +6.7 +6.7 100 +5 +5 1023.0 967.9
08 21.09 штиль 0
{1}
н/о н/о +9.7 +9.7 100 +9 +9 1022.3 967.9
09 21.09 В 2
{3}
н/о н/о +12.1 +8.6 79 +11 +11 1022.0 968.0
10 21.09 ЮВ 1
{3}
н/о н/о +14.3 +8.9 70 +15 +15 1021.4 967.8
11 21.09 В 1
{3}
н/о н/о +15.5 +10.1 70 +16 +16 1020.6 967.3
12 21.09 В 1
{3}
н/о н/о +17.4 +9.1 58 +18 +18 1019.8 966.9
13 21.09 ЮВ 2
{4}
н/о н/о +17.6 +9.5 59 +18 +18 1019.4 966.5
14 21.09 ЮВ 2
{3}
н/о н/о +18.0 +10.1 60 +19 +19 1018.8 966.0
15 21.09 СЗ 1
{2}
н/о н/о +18.2 +10.1 59 +20 +20 1018.3 965.6
16 21.09 З 2
{3}
н/о н/о +16.9 +10.5 66 +17 +17 1018.1 965.2
17 21.09 В 1
{3}
н/о н/о +14.2 +9.0 71 +15 +15 1018.2 964.8
18 21.09 штиль 0
{4}
н/о н/о +11.5 +8.9 84 +11 +11 1018.5 964.6 +4.6 +18.9
19 21.09 З 1
{1}
н/о н/о +9.6 +8.0 90 +9 +9 1018.9 964.6
20 21.09 З 1
{1}
н/о н/о +8.9 +8.3 96 +8 +8 1018.9 964.5
21 21.09 ЮЗ 1
{1}
н/о н/о +8.3 +7.1 92 +7 +7 1018.7 964.2
22 21.09 штиль 0
{1}
н/о н/о +8.5 +6.5 87 +8 +8 1018.6 964.1
23 21.09 штиль 0
{1}
н/о н/о +8.0 +6.1 88 +7 +7 1018.1 963.6
00 22.09 штиль 0
{1}
н/о н/о +8.6 +6.1 84 +8 +8 1017.7 963.3
01 22.09 штиль 0
{1}
н/о н/о +8.9 +6.0 82 +8 +8 1017.1 962.8
02 22.09 СВ 1
{1}
н/о н/о +7.7 +5.2 84 +7 +7 1016.9 962.4
03 22.09 штиль 0
{1}
н/о н/о +8.1 +5.2 82 +7 +7 1016.8 962.3
04 22.09 Ю 1
{1}
н/о н/о +7.4 +4.7 83 +7 +7 1016.4 961.8
05 22.09 штиль 0
{1}
н/о н/о +8.0 +4.6 79 +7 +7 1015.9 961.5
06 22.09 Ю 1
{1}
н/о н/о +7.6 +4.6 81 +7 +7 1015.8 961.3 +7.0 +11.5
07 22.09 штиль 0
{1}
н/о н/о +12.2 +6.5 68 +12 +12 1014.8 961.2
08 22.09 В 1
{1}
н/о н/о +15.2 +8.9 66 +16 +16 1013.9 960.9
09 22.09 В 1
{2}
н/о н/о +17.9 +7.9 52 +19 +19 1013.1 960.6
10 22.09 ЮВ 2
{3}
н/о н/о +18.5 +7.0 47 +19 +19 1012.7 960.3
11 22.09 ЮВ 1
{3}
н/о н/о +20.1 +6.5 41 +22 +22 комфорт 1012.1 960.0
12 22.09 ЮВ 2
{4}
н/о н/о +21.4 +4.9 34 +22 +22 комфорт 1011.7 959.9
13 22.09 ЮВ 2
{4}
н/о н/о +21.5 +5.0 34 +22 +22 комфорт 1011.5 959.7
14 22.09 ЮВ 2
{5}
н/о н/о +22.2 +6.0 35 +23 +23 комфорт 1011.2 959.5
15 22.09 З 3
{3}
н/о н/о +21.2 +7.1 40 +22 +22 комфорт 1011.1 959.3
16 22.09 З 3
{4}
н/о н/о +20.2 +7.9 45 +22 +22 комфорт 1011.2 959.2
17 22.09 СЗ 2
{5}
н/о н/о +17.4 +7.7 53 +18 +18 1011.7 959.2
18 22.09 СЗ 1
{5}
н/о н/о +15.1 +7.2 59 +16 +16 1012.4 959.5 +7.6 +22.7
19 22.09 З 1
{2}
н/о н/о +12.4 +7.3 71 +13 +13 1013.4 959.9
20 22.09 З 1
{1}
н/о н/о +10.4 +7.1 80 +10 +10 1014.1 960.2
21 22.09 штиль 0
{1}
н/о н/о +9.9 +7.0 82 +9 +9 1014.5 960.5
22 22.09 СВ 1
{2}
н/о н/о +10.5 +6.5 76 +10 +10 1014.8 960.9
23 22.09 СВ 1
{2}
н/о н/о +10.4 +6.6 77 +10 +10 1014.9 961.0
00 23.09 штиль 0
{3}
н/о н/о +9.6 +6.5 81 +9 +9 1015.5 961.4
01 23.09 штиль 0
{2}
н/о н/о +8.6 +6.6 87 +8 +8 1015.8 961.5
02 23.09 СВ 1
{3}
н/о н/о +9.0 +6.3 83 +8 +8 1015.7 961.5
03 23.09 СВ 1
{2}
н/о н/о +8.5 +6.0 84 +8 +8 1015.8 961.5
04 23.09 штиль 0
{2}
н/о н/о +8.2 +5.8 85 +7 +7 1016.0 961.6
05 23.09 В 1
{2}
н/о н/о +8.4 +5.5 82 +8 +8 1015.9 961.6
06 23.09 СВ 1
{3}
н/о н/о +7.6 +5.7 88 +7 +7 1016.4 961.9 +7.3 +15.1
07 23.09 СВ 2
{4}
н/о н/о +11.6 +6.7 72 +11 +11 1015.7 962.0
08 23.09 В 3
{4}
н/о н/о +13.4 +7.2 66 +12 +12 1015.4 962.0
09 23.09 ЮВ 4
{5}
н/о н/о +14.6 +6.7 59 +13 +13 1015.1 961.9
10 23.09 ЮВ 5
{7}
н/о н/о +15.1 +6.4 56 +14 +14 1014.8 961.7 0.1
11 23.09 ЮВ 5
{8}
н/о н/о +15.7 +7.0 56 +15 +15 1014.3 961.4
12 23.09 ЮВ 4
{8}
н/о н/о +16.6 +6.4 51 +16 +16 1014.2 961.4
13 23.09 ЮВ 4
{6}
н/о н/о +17.1 +6.3 49 +17 +17 1014.0 961.3
14 23.09 ЮВ 3
{6}
н/о н/о +17.1 +6.3 49 +17 +17 1014.1 961.4
15 23.09 ЮВ 2
{4}
н/о н/о +16.8 +6.3 50 +17 +17 1014.0 961.3
16 23.09 ЮВ 2
{4}
н/о н/о +16.1 +6.3 52 +16 +16 1013.9 961.1
17 23.09 штиль 0
{2}
н/о н/о +13.9 +5.5 57 +14 +14 1014.3 961.1
18 23.09 штиль 0
{6}
н/о н/о +10.9 +6.1 72 +10 +10 1015.0 961.2 +7.6 +17.5
19 23.09 Ю 1
{1}
н/о н/о +9.2 +5.8 79 +9 +9 1015.5 961.3

 

Местоположение метеостанции Квамскоген (Норвегия): широта 60.38 долгота 5.97 высота над уровнем моря 455 м.

В архиве по умолчанию представлена погода в Квамскогене за последнюю неделю. Архивные данные за месяц целиком и за предыдущие месяцы, начиная с января 2011 года, Вы можете получить, выбрав интересующий диапазон дат из раскрывающегося списка и нажав кнопку "Ввод!".


*Определитесь, кто Вы:
робот инопланетянин человек

Внимание! Время в таблицах - всемирное. Для получения местного времени необходимо прибавить поправку, которая равна 1 ч.

Смотрите также архив погоды в соседних городах и на ближайших метеорологических станциях:

Погода на Квамсое (Норвегия) (17 км)
Погода в Фоссмарке (Норвегия) (21 км)
Погода в Эванжере (Норвегия) (31 км)
Погода в Булкене (Норвегия) (33 км)
Погода в Бергене (Норвегия) (35 км)
Погода в Воссевангене (Норвегия) (38 км)
Погода в Улленсванге (Норвегия) (38 км)
Погода в Модалене (Норвегия) (53 км)
Погода в Эустеволле (Норвегия) (58 км)
Погода в Мьолфелле (Норвегия) (64 км)

Пояснения к столбцам:

Ветер - указаны скорость ветра в м/с - средняя за 10 мин, порывы в срок и между сроками (в фигурных скобках) и направление, откуда дует ветер: С - северный, СВ - северо-восточный, В - восточный, ЮВ - юго-восточный, Ю - южный, ЮЗ - юго-западный, З - западный, СЗ - северо-западный.
Видимость - горизонтальная дальность видимости в метрах или километрах. При видимости от 1 до 10 км при отсутствии осадков обычно наблюдается дымка, при ухудшении видимости до 1 км и менее - туман. В сухую погоду видимость может ухудшаться дымом, пылью или мглою.
Явления - указаны атмосферные явления, наблюдавшиеся в срок или в последний час перед сроком; фигурными скобками обозначены явления, наблюдавшиеся между сроками (за 1-3 часа до срока); квадратными скобками обозначены град или гололедные отложения с указанием их диаметра в мм.
Облачность - указаны через наклонную черту общая и нижняя облачность в баллах и высота нижней границы облаков в метрах; квадратными скобками обозначены формы облаков: Ci - перистые, Cs - перисто-слоистые, Cc - перисто-кучевые, Ac - высококучевые, As - высокослоистые, Sc - слоисто-кучевые, Ns - слоисто-дождевые, Cu - кучевые, Cb - кучево-дождевые. Подробнее классификацию облаков см. в Атласе облаков (PDF).
T - Температура воздуха - температура, измеренная на высоте 2 м над землей.
Td - Температура точки росы - температура, при понижении до которой содержащийся в воздухе водяной пар достигнет насыщения.
f - Относительная влажность воздуха - влажноcть воздуха, измеренная на высоте 2 м над землей.
Te - Эффективная температура - температура, которую ощущает одетый по сезону человек в тени. Характеристика душности погоды. При расчете учитывается влияние влажности воздуха и скорости ветра на теплоощущения человека.
Tes - Эффективная температура на солнце - температура, которую ощущает человек, с поправкой на солнечный нагрев. Характеристика знойности погоды. Зависит от высоты солнца над горизонтом, облачности и скорости ветра. Ночью, в пасмурную погоду, а также при ветре 12 м/с и более поправка равна нулю.
P - Атмосферное давление - приведенное к уровню моря атмосферное давление.
Po - Атмосферное давление - измеренное на уровне метеостанции атмосферное давление.
Tmin - Минимальная температура - минимум температуры воздуха на высоте 2 м над землей.
Tmax - Максимальная температура - максимум температуры воздуха на высоте 2 м над землей.
R - Количество осадков - Количество выпавших осадков за период времени, мм. При наведении курсора мыши на число - период времени, за который выпало указанное количество осадков.
R24 - Количество осадков - Количество выпавших осадков за 24 часа, мм.
S - Снежный покров - Высота снежного покрова, см. При наведении курсора мыши на число - состояние снежного покрова и степень покрытия местности в баллах.